Location: Chamerau
(49.1969°N, 12.7525°E)
Time: 09:21:23
(UTC+00:00)

Cosmos 1634 Rocket - Pass Details

Date: 18 September 2020
Orbit: 961 x 991 km, 82.9° (Epoch: 27 October)

Event Time Altitude Azimuth Distance (km) Brightness Sun altitude
Exits shadow 19:34:23 37° 158° (SSE) 1,442 4.5 -22.5°
Maximum altitude 19:36:45 63° 93° (E) 1,073 3.9 -22.8°
Drops below altitude 10° 19:42:52 10° 15° (NNE) 2,717 6.5 -23.6°
Sets 19:45:24 0° 12° (NNE) 3,672 7.3 -24.0°
